DELTA 1 DEB (YO), 167

Orbit data source: Space-Track

DELTA 1 DEB (YO), 167 is space debris in LEO originally from a launch on Wed, 12 Jul 1961 UTC launched from the Air Force Eastern Test Range (AFETR). Debris objects in space refer to the collection of defunct objects orbiting the Earth. Examples of debris include non-operational satellites, rocket bodies, and fragments generated from explosions, collisions, or faulty payload assembly.

Loading next visibility...
Identifier
167, 1961-017D
Orbit
LEO
Country
Flag of USUS
Related business
Manufacturer
RCA/East Windsor
Mission
Spacecraft
Bus & Motor
Unknown
Mass
~1 kg wet, ~1 kg dry
Launch date (UTC)
1961-07-12 (65 years ago)
Launch vehicle
Unknown
Launch site
Air Force Eastern Test Range (AFETR)
Object type
Payload
Rocket body
Debris
Shape & HBR
Unknown shape, 0.1 m
Radar Cross Section
Medium (>0.1 m² and <1 m²)

Expand to show TLE details & history
Last TLE update: 3 days ago

TLE from 3 days ago
0 DELTA 1 DEB (YO)
1   167U 61017D   26171.33813216 -.00000171  00000-0 -68114-5 0  9999
2   167  47.8459  34.0481 0089824 124.8840 236.0528 14.24170603365122
Epoch: 2026-06-20T08:06Z
TLE epoch observation values (Epoch: 2026-06-20T08:06:54.618Z)
Latitude
0.00002°
Longitude
3.76635°
Altitude
848.041 km
Speed
7.411 km/s
True Right ascension
02h 16m 11s
True Declination
0° 00' 00"
Sunlit
Object was in daylight at epoch
Visualization orbit readout
Latitude
Unknown
Longitude
Unknown
Altitude
Unknown
Speed
Unknown
Apparent Right ascension
Unknown
Apparent Declination
Unknown
Sunlit
N/A
Visualization observer readout
Local Sidereal Time
14:57:31
Azimuth
Unknown
Elevation
Unknown
Doppler factor
Unknown
Orbital elements
Apogee altitude
876.951 km
Perigee altitude
747.775 km
Semi-major axis
7,190.5 km
Eccentricity
0.00898
Inclination
47.8459°
RAAN
34.0481°
Arg. of periapsis
124.884°
True anomaly
235.20429°
Mean anomaly
236.0528°
Eccentric anomaly
235.62801°
Mean motion
3.55963 °/min
Orbital period
101.13 mins
BSTAR
-0.0000068114
Loading maneuver chart data...
Computing Atmospheric mass density...
Loading historical data...
Loading historical data...
Loading historical data...
Loading historical data...
Loading historical data...
Loading historical data...
Loading historical data...
Other satellites on launch #17 in the year 1961 (1961-07-12 UTC)

Documentation

Showing up to 5 results
|